TimeEST,TemperatureF,Dew PointF,Humidity,Sea Level PressureIn,VisibilityMPH,Wind Direction,Wind SpeedMPH,Gust SpeedMPH,PrecipitationIn,Events,Conditions,WindDirDegrees,DateUTC
12:54 AM,45.0,34.0,65,30.12,10.0,North,10.4,-,N/A,,Clear,360,2012-11-06 05:54:00
1:54 AM,45.0,34.0,65,30.11,10.0,North,9.2,-,N/A,,Mostly Cloudy,10,2012-11-06 06:54:00
2:54 AM,44.1,34.0,68,30.11,10.0,NNW,10.4,-,N/A,,Mostly Cloudy,340,2012-11-06 07:54:00
3:54 AM,45.0,34.0,65,30.10,10.0,NNW,12.7,-,N/A,,Overcast,340,2012-11-06 08:54:00
4:54 AM,45.0,36.0,71,30.10,10.0,North,12.7,-,N/A,,Overcast,350,2012-11-06 09:54:00
5:54 AM,46.0,37.0,71,30.10,10.0,North,10.4,-,N/A,,Mostly Cloudy,360,2012-11-06 10:54:00
6:54 AM,45.0,37.0,74,30.08,10.0,North,15.0,-,N/A,,Mostly Cloudy,360,2012-11-06 11:54:00
7:54 AM,46.0,37.0,71,30.11,10.0,North,12.7,-,N/A,,Mostly Cloudy,350,2012-11-06 12:54:00
8:54 AM,48.9,39.0,69,30.10,10.0,North,12.7,-,N/A,,Clear,360,2012-11-06 13:54:00
9:54 AM,51.1,39.9,66,30.10,10.0,North,15.0,-,N/A,,Clear,10,2012-11-06 14:54:00
10:54 AM,53.1,41.0,64,30.06,10.0,North,13.8,-,N/A,,Clear,10,2012-11-06 15:54:00
11:54 AM,54.0,41.0,62,30.04,10.0,NNE,17.3,-,N/A,,Clear,30,2012-11-06 16:54:00
12:54 PM,53.1,42.1,66,30.01,10.0,NNE,16.1,23.0,N/A,,Clear,20,2012-11-06 17:54:00
1:50 PM,51.8,41.0,67,30.02,10.0,North,15.0,-,N/A,,Mostly Cloudy,360,2012-11-06 18:50:00
1:54 PM,52.0,41.0,66,30.02,10.0,North,15.0,-,N/A,,Mostly Cloudy,360,2012-11-06 18:54:00
2:54 PM,52.0,41.0,66,30.01,10.0,North,13.8,-,N/A,,Overcast,10,2012-11-06 19:54:00
3:38 PM,51.8,41.0,67,30.00,10.0,North,11.5,20.7,N/A,,Overcast,10,2012-11-06 20:38:00
3:50 PM,51.8,41.0,67,29.99,10.0,North,13.8,-,N/A,,Overcast,360,2012-11-06 20:50:00
3:54 PM,51.1,41.0,68,29.99,10.0,North,12.7,21.9,N/A,,Overcast,360,2012-11-06 20:54:00
4:54 PM,50.0,41.0,71,29.95,10.0,North,15.0,-,0.00,Rain,Light Rain,360,2012-11-06 21:54:00
5:54 PM,48.9,41.0,74,29.95,10.0,North,10.4,-,0.00,,Overcast,10,2012-11-06 22:54:00
6:54 PM,48.9,41.0,74,29.92,10.0,North,12.7,-,0.00,Rain,Light Rain,360,2012-11-06 23:54:00
7:54 PM,50.0,43.0,77,29.91,10.0,North,11.5,-,0.00,Rain,Light Rain,350,2012-11-07 00:54:00
8:15 PM,50.0,42.8,76,29.90,10.0,NNW,11.5,-,0.02,Rain,Light Rain,330,2012-11-07 01:15:00
8:39 PM,50.0,44.6,82,29.90,10.0,NNW,13.8,-,0.03,Rain,Light Rain,330,2012-11-07 01:39:00
8:54 PM,50.0,44.1,80,29.91,9.0,NNW,10.4,-,0.04,Rain,Light Rain,340,2012-11-07 01:54:00
9:06 PM,50.0,44.6,82,29.89,9.0,NNW,9.2,-,0.01,Rain,Light Rain,340,2012-11-07 02:06:00
9:51 PM,50.0,44.6,82,29.88,10.0,NNW,15.0,-,0.02,Rain,Light Rain,330,2012-11-07 02:51:00
9:54 PM,50.0,45.0,83,29.88,10.0,NNW,11.5,-,0.02,Rain,Light Rain,340,2012-11-07 02:54:00
10:44 PM,50.0,44.6,82,29.84,10.0,NNW,12.7,-,0.00,,Overcast,330,2012-11-07 03:44:00
10:54 PM,50.0,45.0,83,29.84,10.0,NNW,10.4,-,0.00,,Overcast,330,2012-11-07 03:54:00
11:54 PM,51.1,46.0,83,29.82,10.0,NW,12.7,-,0.00,,Overcast,310,2012-11-07 04:54:00